COSMOS 1275 DEB, 12672

Orbit data source: Space-Track

COSMOS 1275 DEB, 12672 is space debris in LEO originally from a launch on Thu, 04 Jun 1981 UTC launched from the Plesetsk Missile And Space Complex (PKMTR). Debris objects in space refer to the collection of defunct objects orbiting the Earth. Examples of debris include non-operational satellites, rocket bodies, and fragments generated from explosions, collisions, or faulty payload assembly.

Loading next visibility...
Identifier
12672, 1981-053AC
Orbit
LEO
Country
Flag of CISCIS
Related business
Manufacturer
Unknown
Mission
Spacecraft
Bus & Motor
Unknown
Mass
Unknown
Launch date (UTC)
1981-06-04 (45 years ago)
Launch vehicle
Unknown
Launch site
Plesetsk Missile And Space Complex (PKMTR)
Object type
Payload
Rocket body
Debris
Shape & HBR
Unknown shape, 0.3 m
Radar Cross Section
Medium (>0.1 m² and <1 m²)

Expand to show TLE details & history
Last TLE update: 7 hours ago

TLE from 7 hours ago
0 COSMOS 1275 DEB
1 12672U 81053AC  25346.97501126  .00001089  00000-0  96530-3 0  9990
2 12672  82.9422 310.2678 0027984  66.6816 356.3014 13.83858307232653
Epoch: 2025-12-12T23:24Z
TLE epoch observation values (Epoch: 2025-12-12T23:24:00.972Z)
Latitude
62.21453°
Longitude
-109.12776°
Altitude
940.435 km
Speed
7.398 km/s
True Right ascension
21h 35m 08s
True Declination
62° 04' 34"
Sunlit
Object was in daylight at epoch
Visualization orbit readout
Latitude
Unknown
Longitude
Unknown
Altitude
Unknown
Speed
Unknown
Apparent Right ascension
Unknown
Apparent Declination
Unknown
Sunlit
N/A
Visualization observer readout
Local Sidereal Time
05:21:57
Azimuth
Unknown
Elevation
Unknown
Doppler factor
Unknown
Orbital elements
Apogee altitude
967.87 km
Perigee altitude
926.87 km
Semi-major axis
7,325.507 km
Eccentricity
0.0028
Inclination
82.9422°
RAAN
310.2678°
Arg. of periapsis
66.6816°
True anomaly
356.28064°
Mean anomaly
356.3014°
Eccentric anomaly
356.29103°
Mean motion
3.46168 °/min
Orbital period
104 mins
BSTAR
0.0009653
Loading maneuver chart data...
Computing Atmospheric mass density...
Loading historical data...
Loading historical data...
Loading historical data...
Loading historical data...
Loading historical data...
Loading historical data...
Loading historical data...

Documentation

Showing up to 5 results
|